Location: Newark
(23.1300°N, 73.6109°E)
Time: 17:10:46
(UTC+00:00)

NOAA 18 - Pass Details

Date: 09 July 2020
Orbit: 839 x 862 km, 99.0° (Epoch: 05 August)

Event Time Altitude Azimuth Distance (km) Brightness Sun altitude
Exits shadow 16:37:35 47° 258° (WSW) 1,122 5.9 -31.3°
Maximum altitude 16:37:37 47° 259° (W) 1,122 5.9 -31.3°
Drops below altitude 10° 16:42:56 10° 333° (NNW) 2,490 8.5 -32.1°
Sets 16:45:24 0° 339° (NNW) 3,425 9.3 -32.5°
